Flag for Niger Weather past 2 weeks in Niamey, Niger

Now
81 °F

Clear.


Feels Like: 87 °F
Forecast: 79 / 98 °F
Wind: No wind

Location: Niamey-Aero

Current Time: Sep 24, 2014 at 5:40:34 AM

Latest Report: Sep 24, 2014 at 5:00 AM


Visibility: 10 mi

Pressure: 29.86 "Hg

Humidity: 89%

Dew point: 77 °F

Location of NiameyLocation

Historic Weather in Niamey — Graph

°F

Niamey temperature yesterday

Maximum temperature yesterday: 99 °F (at 2:00 PM)
Minimum temperature yesterday: 79 °F (at 8:00 PM)
Average temperature yesterday: 86 °F

Past Weeks' High & Low Weather Summary

 TemperatureHumidityPressure
High100 °F (Sep 20, 6:00 PM)100% (Sep 13, 11:00 PM)29.98 "Hg (Sep 13, 11:00 PM)
Low72 °F (Sep 16, 5:00 AM)20% (Sep 20, 6:00 PM)29.77 "Hg (Sep 20, 6:00 PM)
Average84 °F65%29.90 "Hg
* Reported Sep 9 4:00 AM — Sep 24 4:00 AM, Niamey, Weather by CustomWeather, © 2014

Note: Actual official high and low records may vary slightly from our data, if they occured in-between our weather recording intervals... More about our weather records

Advertising

Niamey weather history for previous 24 hours

 ConditionsComfort  
Time TempWeatherWind HumidityBarometerVisibility
4:00 AM
Sep 24
81 °FClear.1 mph84%29.86 "Hg10 mi
3:00 AM81 °FClear.2 mph84%29.86 "Hg10 mi
2:00 AM82 °FClear.5 mph74%29.86 "Hg10 mi
1:00 AM81 °FClear.2 mph84%29.89 "Hg10 mi
12:00 AM81 °FClear.2 mph84%29.92 "Hg10 mi
11:00 PM
Sep 23
81 °FClear.3 mph84%29.92 "Hg10 mi
10:00 PM81 °FClear.No wind79%29.92 "Hg10 mi
9:00 PM81 °FClear.7 mph79%29.89 "Hg10 mi
8:00 PM79 °FPassing clouds.8 mph84%29.89 "HgN/A
7:00 PM81 °FPassing clouds.8 mph79%29.86 "Hg5 mi
6:00 PM86 °FThunderstorms. Scattered clouds.8 mph62%29.83 "Hg4 mi
5:00 PM90 °FLight rain. Scattered clouds.15 mph46%29.80 "Hg3 mi
4:00 PM99 °FPassing clouds.7 mph31%29.80 "HgN/A
3:00 PM99 °FScattered clouds.6 mph33%29.83 "HgN/A
2:00 PM99 °FScattered clouds.2 mph33%29.86 "HgN/A
1:00 PM95 °FPassing clouds.6 mph41%29.89 "HgN/A
12:00 PM93 °FPassing clouds.6 mph47%29.92 "HgN/A
11:00 AM90 °FPassing clouds.8 mph55%29.95 "HgN/A
10:00 AM86 °FSunny.6 mph66%29.95 "Hg10 mi
9:00 AM84 °FPassing clouds.6 mph70%29.92 "HgN/A
8:00 AM82 °FPassing clouds.5 mph74%29.92 "HgN/A
7:00 AM81 °FSunny.5 mph79%29.89 "Hg10 mi
6:00 AM82 °FClear.3 mph74%29.86 "Hg10 mi
5:00 AM82 °FClear.3 mph74%29.86 "Hg10 mi
Weather by CustomWeather, © 2014

See weather overviewHow to use our weather pages